Terminal Aerodrome Forecast
Issued by NWS Portland, OR

Home | Current Version | Previous Version | Text Only | Print | Product List | Glossary On
Versions: 1 2 3 4 5 6 7 8 9 10 11 12 13 14 15 16 17 18 19 20 21 22 23 24 25 26 27 28 29 30 31 32 33 34 35 36 37 38 39 40 41
000
FTUS46 KPQR 220541
TAFSLE
TAF
KSLE 220541Z 2206/2306 16006KT P6SM -SHRA FEW020 BKN040 BKN070
     FM221100 VRB03KT P6SM SCT011 OVC070
     FM222000 VRB03KT P6SM SCT030 OVC070=

USA.gov is the U.S. government's official web portal to all federal, state and local government web resources and services.